FW5442 Weather Reports


time (UTC)temp
F
wind
direction
speed
knots
gust
knots
rain 1hr
in
rain 24hr
in
rain mn
in
humidity
%
barometer
mb
20260906231555 82 140 9.6 15.6 0.15 0.15 0.15 72 1010.2
20260906231053 85 340 2.6 26.9 0.08 0.08 0.08 65 1010.4
20260906230553 88 229 7.0 26.9 0.00 0.00 0.00 58 1010.5
20260906230107 93 330 10.4 20.9 0.00 0.00 0.00 48 1010.5
20260906225554 97 34 5.2 14.8 0.00 0.00 0.00 40 1010.0
20260906225054 98 21 8.7 11.3 0.00 0.00 0.00 41 1009.0
20260906224605 98 105 8.7 10.4 0.00 0.00 0.00 41 1008.5
20260906224054 99 120 7.0 11.3 0.00 0.00 0.00 40 1008.6
20260906223555 99 123 7.0 11.3 0.00 0.00 0.00 40 1008.4
20260906223112 101 110 9.6 11.3 0.00 0.00 0.00 37 1008.3
20260906222552 103 98 6.1 11.3 0.00 0.00 0.00 35 1008.2
20260906222052 104 81 3.5 7.0 0.00 0.00 0.00 32 1008.1
20260906221602 104 56 2.6 7.8 0.00 0.00 0.00 31 1008.3
20260906221055 104 276 1.7 9.6 0.00 0.00 0.00 32 1008.1
20260906220556 103 13 4.3 9.6 0.00 0.00 0.00 31 1008.2
20260906215554 102 85 2.6 5.2 0.00 0.00 0.00 34 1008.5
20260906215055 102 0 0.9 7.8 0.00 0.00 0.00 34 1008.5
20260906214554 102 58 4.3 7.8 0.00 0.00 0.00 35 1008.5
20260906214053 103 110 1.7 8.7 0.00 0.00 0.00 33 1008.6
20260906213552 102 6 3.5 8.7 0.00 0.00 0.00 33 1008.6
20260906213057 103 346 5.2 8.7 0.00 0.00 0.00 33 1008.5
20260906212551 103 6 3.5 8.7 0.00 0.00 0.00 33 1008.4
20260906212055 103 345 2.6 8.7 0.00 0.00 0.00 33 1008.5
20260906211601 104 16 4.3 8.7 0.00 0.00 0.00 33 1008.4
20260906211054 103 11 5.2 8.7 0.00 0.00 0.00 33 1008.5
20260906210557 103 8 4.3 10.4 0.00 0.00 0.00 33 1008.4
20260906210122 103 358 5.2 10.4 0.00 0.00 0.00 34 1008.5
20260906205552 102 12 6.1 10.4 0.00 0.00 0.00 33 1008.7
20260906205053 103 6 3.5 10.4 0.00 0.00 0.00 33 1008.6
20260906204601 102 297 5.2 12.2 0.00 0.00 0.00 32 1008.6
20260906204053 102 290 5.2 13.0 0.00 0.00 0.00 32 1008.6
20260906203552 102 308 8.7 13.0 0.00 0.00 0.00 32 1008.7
20260906203105 102 292 6.1 13.0 0.00 0.00 0.00 34 1008.9
20260906202554 102 1 7.0 10.4 0.00 0.00 0.00 34 1009.0
20260906202054 102 317 2.6 12.2 0.00 0.00 0.00 34 1009.1
20260906201604 101 330 5.2 12.2 0.00 0.00 0.00 35 1009.2
20260906201055 102 346 4.3 14.8 0.00 0.00 0.00 35 1009.1
20260906200552 102 32 5.2 14.8 0.00 0.00 0.00 35 1009.1
20260906200108 102 348 7.0 12.2 0.00 0.00 0.00 36 1009.3
20260906195552 102 319 5.2 10.4 0.00 0.00 0.00 35 1009.3
20260906195055 101 101 3.5 11.3 0.00 0.00 0.00 35 1009.2
20260906194606 102 30 3.5 12.2 0.00 0.00 0.00 36 1009.4
20260906194053 101 345 7.8 12.2 0.00 0.00 0.00 36 1009.3
20260906193554 100 299 3.5 12.2 0.00 0.00 0.00 37 1009.3
20260906193101 101 330 7.0 11.3 0.00 0.00 0.00 36 1009.6
20260906192554 101 275 5.2 11.3 0.00 0.00 0.00 36 1009.8
20260906192056 101 297 7.0 11.3 0.00 0.00 0.00 36 1009.8
20260906191601 101 45 5.2 11.3 0.00 0.00 0.00 36 1010.0
20260906191058 101 301 3.5 13.0 0.00 0.00 0.00 36 1009.9
20260906190601 101 312 7.0 13.0 0.00 0.00 0.00 36 1010.1
20260906190105 102 309 7.8 13.0 0.00 0.00 0.00 35 1010.1
20260906185556 102 4 1.7 10.4 0.00 0.00 0.00 36 1010.2
20260906185057 103 354 3.5 12.2 0.00 0.00 0.00 35 1010.3
20260906184627 103 340 4.3 12.2 0.00 0.00 0.00 36 1010.4
20260906184100 102 344 0.9 7.0 0.00 0.00 0.00 36 1010.4
20260906183556 101 86 3.5 10.4 0.00 0.00 0.00 36 1010.5
20260906183102 101 250 4.3 10.4 0.00 0.00 0.00 36 1010.7
20260906182556 102 237 7.0 9.6 0.00 0.00 0.00 36 1010.8
20260906182056 102 2 1.7 6.1 0.00 0.00 0.00 36 1010.8
20260906181606 103 328 1.7 6.1 0.00 0.00 0.00 33 1010.9
20260906181056 102 120 1.7 10.4 0.00 0.00 0.00 35 1010.9
20260906180556 101 89 3.5 10.4 0.00 0.00 0.00 36 1011.0
20260906175557 101 316 6.1 10.4 0.00 0.00 0.00 36 1011.2
20260906175055 102 5 2.6 8.7 0.00 0.00 0.00 35 1011.4
20260906174558 101 68 3.5 10.4 0.00 0.00 0.00 35 1011.2
20260906174057 100 113 6.1 13.0 0.00 0.00 0.00 37 1011.4
20260906173558 100 300 5.2 13.0 0.00 0.00 0.00 37 1011.4
20260906173116 100 19 3.5 8.7 0.00 0.00 0.00 38 1011.5
20260906172557 99 332 2.6 12.2 0.00 0.00 0.00 39 1011.5
20260906172056 99 304 7.0 12.2 0.00 0.00 0.00 40 1011.7
20260906171605 99 326 5.2 9.6 0.00 0.00 0.00 39 1011.7
20260906171056 99 298 7.8 9.6 0.00 0.00 0.00 40 1011.9
20260906170556 100 323 3.5 9.6 0.00 0.00 0.00 39 1011.9
20260906170111 100 332 3.5 6.1 0.00 0.00 0.00 39 1011.9
20260906165556 100 47 2.6 7.0 0.00 0.00 0.00 39 1012.0
20260906165057 100 96 4.3 7.0 0.00 0.00 0.00 38 1012.0
20260906164601 99 63 3.5 9.6 0.00 0.00 0.00 40 1012.1
20260906164056 99 323 5.2 9.6 0.00 0.00 0.00 41 1012.3
20260906163558 100 26 5.2 9.6 0.00 0.00 0.00 40 1012.2
20260906163105 100 110 1.7 7.0 0.00 0.00 0.00 42 1012.4
20260906162558 99 77 2.6 9.6 0.00 0.00 0.00 43 1012.4
20260906162054 99 36 3.5 9.6 0.00 0.00 0.00 44 1012.4
20260906161606 99 12 2.6 8.7 0.00 0.00 0.00 43 1012.4
20260906161054 98 70 3.5 8.7 0.00 0.00 0.00 44 1012.3
20260906160552 98 141 2.6 7.0 0.00 0.00 0.00 44 1012.4
20260906160058 98 76 2.6 7.0 0.00 0.00 0.00 44 1012.3
20260906155555 96 323 2.6 7.0 0.00 0.00 0.00 46 1012.2
20260906155054 96 22 4.3 7.0 0.00 0.00 0.00 46 1012.3
20260906154601 96 332 2.6 6.1 0.00 0.00 0.00 48 1012.4
20260906154054 96 302 1.7 7.0 0.00 0.00 0.00 48 1012.3
20260906153554 95 257 0.9 7.0 0.00 0.00 0.00 49 1012.3
20260906153102 95 17 3.5 7.0 0.00 0.00 0.00 49 1012.4
20260906152554 95 354 2.6 6.1 0.00 0.00 0.00 50 1012.4
20260906152058 94 20 2.6 6.1 0.00 0.00 0.00 49 1012.3
20260906151602 94 3 2.6 7.8 0.00 0.00 0.00 50 1012.3
20260906151054 94 342 4.3 7.8 0.00 0.00 0.00 52 1012.3
20260906150554 93 330 4.3 7.8 0.00 0.00 0.00 51 1012.3
20260906150059 93 15 4.3 7.8 0.00 0.00 0.00 53 1012.3
20260906145554 93 47 3.5 7.8 0.00 0.00 0.00 53 1012.3
20260906145054 93 15 4.3 7.8 0.00 0.00 0.00 53 1012.4
20260906144557 93 358 3.5 9.6 0.00 0.00 0.00 54 1012.4
20260906144054 92 19 4.3 9.6 0.00 0.00 0.00 55 1012.4
20260906143555 92 324 5.2 7.8 0.00 0.00 0.00 53 1012.3
20260906143101 92 329 5.2 7.8 0.00 0.00 0.00 55 1012.4
20260906142554 91 321 6.1 8.7 0.00 0.00 0.00 54 1012.2
20260906142055 91 342 4.3 9.6 0.00 0.00 0.00 55 1012.2
20260906141611 90 340 6.1 9.6 0.00 0.00 0.00 57 1012.2
20260906141054 90 309 4.3 7.0 0.00 0.00 0.00 58 1012.3
20260906140554 89 334 5.2 7.0 0.00 0.00 0.00 60 1012.4
20260906135554 88 323 5.2 7.8 0.00 0.00 0.00 61 1012.3
20260906135054 88 357 3.5 7.8 0.00 0.00 0.00 61 1012.4
20260906134602 87 307 4.3 7.8 0.00 0.00 0.00 63 1012.5
20260906134054 87 352 5.2 7.0 0.00 0.00 0.00 65 1012.5
20260906133554 86 340 3.5 6.1 0.00 0.00 0.00 69 1012.5
20260906133106 85 340 5.2 6.1 0.00 0.00 0.00 69 1012.6
20260906132555 85 323 4.3 6.1 0.00 0.00 0.00 70 1012.5
20260906132052 84 305 4.3 6.1 0.00 0.00 0.00 70 1012.4
20260906131602 84 323 3.5 5.2 0.00 0.00 0.00 71 1012.5
20260906131053 83 304 2.6 4.3 0.00 0.00 0.00 73 1012.6
20260906130553 83 321 2.6 4.3 0.00 0.00 0.00 75 1012.5
20260906130147 82 314 2.6 4.3 0.00 0.00 0.00 76 1012.5
20260906125554 82 311 1.7 3.5 0.00 0.00 0.00 77 1012.4
20260906125054 81 314 1.7 3.5 0.00 0.00 0.00 78 1012.4
20260906124608 81 289 1.7 4.3 0.00 0.00 0.00 79 1012.4
20260906124055 80 317 2.6 4.3 0.00 0.00 0.00 79 1012.4
20260906123554 80 301 3.5 4.3 0.00 0.00 0.00 79 1012.2
20260906123105 80 319 1.7 3.5 0.00 0.00 0.00 80 1012.2
20260906122554 80 327 1.7 5.2 0.00 0.00 0.00 81 1012.2
20260906122054 79 313 1.7 5.2 0.00 0.00 0.00 81 1012.2
20260906121608 79 291 2.6 5.2 0.00 0.00 0.00 82 1012.1
20260906121056 78 320 1.7 3.5 0.00 0.00 0.00 83 1011.9
20260906120553 77 319 0.9 3.5 0.00 0.00 0.00 84 1011.9
20260906120112 77 266 2.6 3.5 0.00 0.00 0.00 85 1011.9
20260906115554 77 236 2.6 2.6 0.00 0.00 0.00 85 1011.9
20260906115054 77 238 0.9 1.7 0.00 0.00 0.00 84 1011.6
20260906114612 77 255 1.7 1.7 0.00 0.00 0.00 84 1011.6
20260906114054 77 255 0.9 1.7 0.00 0.00 0.00 85 1011.6
20260906113552 77 252 0.9 0.9 0.00 0.00 0.00 84 1011.5
20260906113108 78 0 0.0 1.7 0.00 0.00 0.00 82 1011.5
20260906112556 78 0 0.9 3.5 0.00 0.00 0.00 82 1011.4
20260906112053 78 290 1.7 3.5 0.00 0.00 0.00 82 1011.4
20260906111557 78 319 2.6 3.5 0.00 0.00 0.00 83 1011.3
20260906111053 78 335 2.6 3.5 0.00 0.00 0.00 83 1011.4
20260906110554 78 323 2.6 3.5 0.00 0.00 0.00 83 1011.5
20260906110100 78 327 2.6 4.3 0.00 0.00 0.00 83 1011.3
20260906105555 79 332 2.6 4.3 0.00 0.00 0.00 82 1011.3
20260906105053 79 328 2.6 4.3 0.00 0.00 0.00 81 1011.2
20260906104601 79 290 3.5 4.3 0.00 0.00 0.00 83 1011.2
20260906104053 78 269 3.5 3.5 0.00 0.00 0.00 84 1011.2
20260906103553 78 262 2.6 3.5 0.00 0.00 0.00 85 1011.1
20260906103105 77 278 1.7 2.6 0.00 0.00 0.00 86 1011.1
20260906102557 77 265 1.7 2.6 0.00 0.00 0.00 87 1011.2
20260906102054 77 255 1.7 2.6 0.00 0.00 0.00 87 1011.3
20260906101604 76 255 0.9 2.6 0.00 0.00 0.00 87 1011.3
20260906101053 76 243 1.7 2.6 0.00 0.00 0.00 86 1011.3
20260906100556 76 247 1.7 5.2 0.00 0.00 0.00 85 1011.1
20260906100059 77 224 2.6 6.1 0.00 0.00 0.00 86 1011.1
20260906095554 77 208 5.2 6.1 0.00 0.00 0.00 84 1011.1
20260906095056 78 226 0.0 0.0 0.00 0.00 0.00 83 1011.0
20260906094602 78 0 0.0 0.0 0.00 0.00 0.00 85 1010.8
20260906094055 77 0 0.0 2.6 0.00 0.00 0.00 85 1010.7
20260906093555 77 0 0.0 2.6 0.00 0.00 0.00 84 1010.8
20260906093059 77 189 2.6 2.6 0.00 0.00 0.00 84 1010.7
20260906092556 78 228 0.0 1.7 0.00 0.00 0.00 84 1010.8
20260906092056 78 0 0.0 0.0 0.00 0.00 0.00 83 1010.6
20260906091557 78 0 0.0 0.0 0.00 0.00 0.00 82 1010.7
20260906091056 78 0 0.0 0.0 0.00 0.00 0.00 82 1010.7
20260906090555 78 0 0.0 0.9 0.00 0.00 0.00 82 1010.7
20260906090058 79 0 0.0 1.7 0.00 0.00 0.00 81 1010.8
20260906085555 80 336 0.9 2.6 0.00 0.00 0.00 81 1010.8
20260906085055 80 335 1.7 3.5 0.00 0.00 0.00 81 1010.6
20260906084603 79 351 1.7 3.5 0.00 0.00 0.00 82 1010.7
20260906084100 79 333 2.6 3.5 0.00 0.00 0.00 82 1010.6
20260906083556 79 349 1.7 2.6 0.00 0.00 0.00 82 1010.6
20260906083102 79 330 1.7 1.7 0.00 0.00 0.00 82 1010.6
20260906082555 79 325 1.7 1.7 0.00 0.00 0.00 82 1010.6
20260906082056 79 337 1.7 1.7 0.00 0.00 0.00 82 1010.6
20260906081604 79 0 0.0 0.0 0.00 0.00 0.00 81 1010.4
20260906081056 80 0 0.0 0.0 0.00 0.00 0.00 81 1010.7
20260906080556 79 0 0.0 0.0 0.00 0.00 0.00 81 1010.7
20260906080103 79 0 0.0 0.0 0.00 0.00 0.00 81 1010.7
20260906075556 79 0 0.0 0.0 0.00 0.00 0.00 81 1010.8
20260906075056 79 0 0.0 0.9 0.00 0.00 0.00 81 1011.0
20260906074602 79 0 0.0 2.6 0.00 0.00 0.00 81 1010.8
20260906074056 79 218 0.9 2.6 0.00 0.00 0.00 81 1010.9
20260906073556 79 204 2.6 2.6 0.00 0.00 0.00 81 1010.9
20260906073059 79 202 2.6 2.6 0.00 0.00 0.00 80 1010.8
20260906072557 80 217 1.7 2.6 0.00 0.00 0.00 80 1010.8
20260906072057 80 223 1.7 1.7 0.00 0.00 0.00 80 1010.8
20260906071603 80 169 0.9 1.7 0.00 0.00 0.00 79 1010.7
20260906071101 80 161 0.9 1.7 0.00 0.00 0.00 79 1010.7
20260906070556 80 203 0.9 1.7 0.00 0.00 0.00 79 1010.8
20260906070103 80 0 0.0 0.0 0.00 0.00 0.00 79 1010.8
20260906065556 81 0 0.0 0.0 0.00 0.00 0.00 78 1010.9
20260906065054 81 0 0.0 0.0 0.00 0.00 0.00 77 1010.9
20260906064600 81 0 0.0 0.0 0.00 0.00 0.00 77 1010.8
20260906064059 81 0 0.0 0.0 0.00 0.00 0.00 77 1010.9
20260906063553 81 0 0.0 0.0 0.00 0.00 0.00 77 1011.0
20260906063105 81 0 0.0 0.0 0.00 0.00 0.00 76 1011.0
20260906062554 81 0 0.0 0.0 0.00 0.00 0.00 76 1011.0
20260906062054 81 0 0.0 0.0 0.00 0.00 0.00 76 1011.0
20260906061623 81 0 0.0 0.9 0.00 0.00 0.00 76 1011.1
20260906061054 82 0 0.0 0.9 0.00 0.00 0.00 75 1011.1
20260906060554 82 241 0.9 0.9 0.00 0.00 0.00 75 1011.1
20260906060119 82 240 0.9 0.9 0.00 0.00 0.00 75 1011.0
20260906055554 82 242 0.9 0.9 0.00 0.00 0.00 75 1011.1
20260906055056 82 234 0.9 1.7 0.00 0.00 0.00 75 1011.1
20260906054605 82 231 0.9 1.7 0.00 0.00 0.00 74 1011.3
20260906054056 82 231 1.7 2.6 0.00 0.00 0.00 74 1011.3
20260906053556 82 224 1.7 2.6 0.00 0.00 0.00 74 1011.3
20260906053102 82 214 1.7 2.6 0.00 0.00 0.00 74 1011.3
20260906052556 82 211 1.7 4.3 0.00 0.00 0.00 74 1011.4
20260906052055 82 219 2.6 4.3 0.00 0.00 0.00 73 1011.3
20260906051608 82 193 3.5 5.2 0.00 0.00 0.00 73 1011.2
20260906051055 82 181 4.3 6.1 0.00 0.00 0.00 73 1011.1
20260906050556 83 173 5.2 6.1 0.00 0.00 0.00 72 1011.1
20260906050104 83 201 4.3 7.0 0.00 0.00 0.00 72 1011.1
20260906045558 83 216 4.3 7.0 0.00 0.00 0.00 72 1011.1
20260906045056 83 202 5.2 7.8 0.00 0.00 0.00 71 1011.0
20260906044603 84 194 6.1 8.7 0.00 0.00 0.00 70 1010.8
20260906044055 84 193 6.1 9.6 0.00 0.00 0.00 70 1010.9
20260906043600 84 186 7.0 9.6 0.00 0.00 0.00 69 1010.9
20260906043105 84 191 7.0 9.6 0.00 0.00 0.00 69 1010.8
20260906042556 84 195 7.8 10.4 0.00 0.00 0.00 69 1011.0
20260906042056 84 179 7.0 10.4 0.00 0.00 0.00 68 1010.8
20260906041601 84 192 7.8 10.4 0.00 0.00 0.00 69 1010.8
20260906041056 84 174 5.2 8.7 0.00 0.00 0.00 69 1010.9
20260906040556 84 167 5.2 8.7 0.00 0.00 0.00 69 1011.0
20260906040057 84 163 6.1 7.8 0.00 0.00 0.00 69 1011.1
20260906035555 84 158 5.2 7.8 0.00 0.00 0.00 69 1011.1
20260906035055 84 166 2.6 5.2 0.00 0.00 0.00 68 1011.0
20260906034606 85 172 2.6 4.3 0.00 0.00 0.00 67 1011.1
20260906034053 85 172 3.5 4.3 0.00 0.00 0.00 66 1011.1
20260906033555 85 168 2.6 5.2 0.00 0.00 0.00 66 1011.3
20260906033114 85 174 2.6 5.2 0.00 0.00 0.00 65 1011.1
20260906032556 85 162 4.3 5.2 0.00 0.00 0.00 65 1011.2
20260906032054 85 163 3.5 5.2 0.00 0.00 0.00 65 1011.3
20260906031600 85 181 2.6 4.3 0.00 0.00 0.00 65 1011.4
20260906031056 85 167 0.9 5.2 0.00 0.00 0.00 65 1011.3
20260906030554 86 173 1.7 6.1 0.00 0.00 0.00 65 1011.2
20260906030109 86 160 3.5 7.0 0.00 0.00 0.00 64 1011.0
20260906025553 86 162 4.3 7.0 0.00 0.00 0.00 64 1011.1
20260906025053 86 176 5.2 7.0 0.00 0.00 0.00 65 1011.2
20260906024559 85 149 2.6 7.0 0.00 0.00 0.00 66 1011.3
20260906024053 84 119 5.2 7.0 0.00 0.00 0.00 67 1011.3
20260906023554 85 156 0.0 1.7 0.00 0.00 0.00 65 1011.2
20260906023109 86 183 0.0 0.9 0.00 0.00 0.00 64 1011.1
20260906022553 86 0 0.0 1.7 0.00 0.00 0.00 65 1011.1
20260906022053 86 227 0.9 2.6 0.00 0.00 0.00 64 1011.1
20260906021601 86 245 1.7 2.6 0.00 0.00 0.00 64 1011.0
20260906021053 86 218 1.7 2.6 0.00 0.00 0.00 63 1011.0
20260906020557 86 264 1.7 3.5 0.00 0.00 0.00 63 1010.8
20260906020100 86 200 2.6 3.5 0.00 0.00 0.00 63 1010.8
20260906015552 87 245 0.9 1.7 0.00 0.00 0.00 63 1010.8
20260906015053 87 0 0.0 1.7 0.00 0.00 0.00 63 1010.8
20260906014606 87 0 0.0 0.0 0.00 0.00 0.00 62 1010.6
20260906014054 88 0 0.0 0.0 0.00 0.00 0.00 60 1010.4
20260906013554 88 0 0.0 0.9 0.00 0.00 0.00 60 1010.5
20260906013100 88 0 0.0 1.7 0.00 0.00 0.00 59 1010.4
20260906012555 89 153 0.0 1.7 0.00 0.00 0.00 57 1010.2
20260906012053 90 0 0.9 3.5 0.00 0.00 0.00 57 1010.0
20260906011608 90 316 0.9 5.2 0.00 0.00 0.00 56 1010.0
20260906011053 91 311 3.5 5.2 0.00 0.00 0.00 55 1009.9
20260906010552 91 286 3.5 5.2 0.00 0.00 0.00 54 1009.9
20260906005553 91 290 3.5 5.2 0.00 0.00 0.00 54 1009.7
20260906005057 91 304 1.7 3.5 0.00 0.00 0.00 54 1009.8
20260906004601 91 292 2.6 3.5 0.00 0.00 0.00 53 1009.7
20260906004056 92 299 2.6 3.5 0.00 0.00 0.00 52 1009.6
20260906003554 92 304 2.6 3.5 0.00 0.00 0.00 51 1009.6
20260906003104 93 295 1.7 4.3 0.00 0.00 0.00 51 1009.6
20260906002552 93 296 2.6 6.1 0.00 0.00 0.00 51 1009.5
20260906002056 93 295 3.5 6.1 0.00 0.00 0.00 51 1009.4
20260906001605 93 294 4.3 7.0 0.00 0.00 0.00 50 1009.4
20260906001056 94 287 4.3 8.7 0.00 0.00 0.00 49 1009.5
20260906000555 94 297 5.2 8.7 0.00 0.00 0.00 49 1009.5
20260906000104 94 288 7.0 8.7 0.00 0.00 0.00 48 1009.4
20260905235553 95 299 6.1 10.4 0.00 0.00 0.00 48 1009.4
20260905235056 95 289 6.1 10.4 0.00 0.00 0.00 47 1009.4
20260905234557 95 293 7.0 9.6 0.00 0.00 0.00 47 1009.4
20260905234053 96 291 5.2 8.7 0.00 0.00 0.00 47 1009.3
20260905233556 96 307 5.2 7.8 0.00 0.00 0.00 46 1009.2
20260905233116 97 308 0.0 1.7 0.00 0.00 0.00 41 1009.2
20260905232555 98 0 0.0 1.7 0.00 0.00 0.00 41 1009.2
20260905232053 97 0 0.0 2.6 0.00 0.00 0.00 41 1009.2